Date String (YYYY-MM-DD hh:mm:ss) UTC,Instrument flags,Ambient pressure (hPa),Sample flow (lpm),Bypass flow (lpm),Sample temperature (°C),Ambient temperature (°C),ASC tube jacket temperature (°C),LED temperature (°C),Box temperature (°C),Sample RH (%),Span deviation,Mass concentration (μg/m³),Mass concentration (μg/m³),Mass concentration (μg/m³)
DateTimeUTC,F1_M11,P_M11,Q1_M11,Q2_M11,T1_M11,T2_M11,T3_M11,T4_M11,T5_M11,U1_M11,ZSPAN_M11,X0_M11,X2_M11,X1_M11
2022-11-08 04:00:00,,0823.2,5.00,0.00,26.5,24.8,00.0,35.5,28.3,14.0,0004.5,0017.18,0007.80,0006.53
2022-11-08 04:01:00,,0823.2,5.01,0.00,26.5,24.9,00.0,35.5,28.3,14.0,0004.6,0017.52,0007.73,0006.49
2022-11-08 04:02:00,,0823.2,5.00,0.00,26.5,24.8,00.0,35.5,28.3,14.0,0004.9,0017.59,0007.65,0006.46
2022-11-08 04:03:00,,0823.2,5.00,0.00,26.5,24.8,00.0,35.4,28.3,14.0,0004.6,0017.33,0007.60,0006.44
2022-11-08 04:04:00,,0823.1,5.00,0.00,26.5,24.8,00.0,35.4,28.2,14.1,0004.1,0017.05,0007.61,0006.43
2022-11-08 04:05:00,,0823.2,5.01,0.00,26.5,24.7,00.0,35.4,28.3,14.1,0003.7,0017.28,0007.69,0006.47
2022-11-08 04:06:00,,0823.1,5.01,0.00,26.5,24.7,00.0,35.4,28.2,14.1,0003.8,0016.92,0007.72,0006.49
2022-11-08 04:07:00,,0823.2,5.00,0.00,26.4,24.7,00.0,35.4,28.2,14.1,0003.6,0017.36,0007.76,0006.50
2022-11-08 04:08:00,,0823.2,5.00,0.00,26.4,24.7,00.0,35.4,28.2,14.1,0003.7,0018.47,0007.77,0006.50
2022-11-08 04:09:00,,0823.2,5.00,0.00,26.4,24.7,00.0,35.3,28.2,14.2,0003.2,0018.37,0007.77,0006.50
2022-11-08 04:10:00,,0823.2,4.99,0.00,26.4,24.7,00.0,35.3,28.2,14.1,0003.2,0018.73,0007.81,0006.53
2022-11-08 04:11:00,,0823.2,5.02,0.00,26.4,24.7,00.0,35.3,28.2,14.1,0003.1,0018.86,0007.84,0006.59
2022-11-08 04:12:00,,0823.3,5.01,0.00,26.4,24.7,00.0,35.3,28.2,14.1,0002.9,0019.23,0007.93,0006.67
2022-11-08 04:13:00,,0823.2,5.00,0.00,26.4,24.7,00.0,35.3,28.2,14.1,0002.8,0018.88,0007.96,0006.71
2022-11-08 04:14:00,,0823.2,4.99,0.00,26.4,24.7,00.0,35.3,28.1,14.2,0002.8,0019.39,0008.04,0006.77
2022-11-08 04:15:00,,0823.1,5.00,0.00,26.4,24.6,00.0,35.3,28.1,14.2,0002.7,0019.35,0008.05,0006.81
2022-11-08 04:16:00,,0823.1,4.99,0.00,26.3,24.6,00.0,35.3,28.1,14.2,0003.0,0019.85,0008.06,0006.85
2022-11-08 04:17:00,,0823.1,5.01,0.00,26.3,24.6,00.0,35.3,28.1,14.2,0002.7,0019.69,0008.07,0006.90
2022-11-08 04:18:00,,0823.1,5.00,0.00,26.3,24.6,00.0,35.3,28.1,14.2,0002.9,0018.97,0008.09,0006.96
2022-11-08 04:19:00,,0823.2,4.99,0.00,26.3,24.6,00.0,35.2,28.1,14.2,0002.4,0017.96,0008.15,0007.01
2022-11-08 04:20:00,,0823.2,5.02,0.00,26.3,24.6,00.0,35.2,28.1,14.2,0002.7,0016.97,0008.18,0007.05
2022-11-08 04:21:00,,0823.1,5.00,0.00,26.3,24.6,00.0,35.2,28.0,14.2,0002.7,0016.76,0008.17,0007.04
2022-11-08 04:22:00,,0823.1,5.00,0.00,26.3,24.5,00.0,35.2,28.0,14.2,0002.7,0017.48,0008.18,0007.04
2022-11-08 04:23:00,,0823.2,4.99,0.00,26.3,24.5,00.0,35.2,28.0,14.2,0003.0,0017.75,0008.20,0007.02
2022-11-08 04:24:00,,0823.2,5.00,0.00,26.2,24.5,00.0,35.2,28.0,14.2,0002.9,0017.84,0008.24,0007.04
2022-11-08 04:25:00,,0823.1,4.99,0.00,26.2,24.5,00.0,35.2,28.0,14.3,0002.8,0017.90,0008.21,0007.04
2022-11-08 04:26:00,,0823.1,5.01,0.00,26.2,24.5,00.0,35.2,28.0,14.3,0002.9,0017.67,0008.20,0007.03
2022-11-08 04:27:00,,0823.1,5.01,0.00,26.2,24.5,00.0,35.1,28.0,14.3,0002.7,0017.02,0008.24,0007.05
2022-11-08 04:28:00,,0823.1,5.00,0.00,26.2,24.4,00.0,35.1,28.0,14.3,0002.8,0017.51,0008.29,0007.06
2022-11-08 04:29:00,,0823.1,5.01,0.00,26.2,24.4,00.0,35.1,27.9,14.3,0002.6,0018.65,0008.31,0007.07
2022-11-08 04:30:00,,0823.1,4.99,0.00,26.2,24.4,00.0,35.1,27.9,14.3,0003.0,0018.54,0008.34,0007.09
2022-11-08 04:31:00,,0823.1,4.99,0.00,26.2,24.4,00.0,35.1,27.9,14.3,0003.0,0018.98,0008.48,0007.16
2022-11-08 04:32:00,,0823.2,5.00,0.00,26.2,24.4,00.0,35.1,28.0,14.3,0003.2,0019.16,0008.51,0007.23
2022-11-08 04:33:00,,0823.2,5.00,0.00,26.2,24.4,00.0,35.1,28.0,14.4,0003.2,0019.62,0008.54,0007.26
2022-11-08 04:34:00,,0823.2,5.00,0.00,26.2,24.5,00.0,35.1,28.0,14.4,0003.2,0019.34,0008.56,0007.29
2022-11-08 04:35:00,,0823.2,5.01,0.00,26.1,24.4,00.0,35.0,27.9,14.4,0003.3,0019.36,0008.58,0007.32
2022-11-08 04:36:00,,0823.2,5.00,0.00,26.1,24.4,00.0,35.0,27.9,14.4,0003.3,0019.12,0008.66,0007.37
2022-11-08 04:37:00,,0823.2,5.00,0.00,26.1,24.4,00.0,35.0,27.9,14.4,0003.3,0019.91,0008.76,0007.45
2022-11-08 04:38:00,,0823.2,5.00,0.00,26.1,24.4,00.0,35.0,27.9,14.4,0003.6,0020.45,0008.83,0007.54
2022-11-08 04:39:00,,0823.1,4.99,0.00,26.1,24.4,00.0,35.0,27.9,14.4,0003.8,0020.33,0008.83,0007.58
2022-11-08 04:40:00,,0823.1,5.00,0.00,26.1,24.4,00.0,35.0,27.9,14.4,0004.0,0019.47,0008.85,0007.61
2022-11-08 04:41:00,,0823.1,5.01,0.00,26.1,24.4,00.0,35.0,27.9,14.4,0004.0,0020.49,0008.92,0007.62
2022-11-08 04:42:00,,0823.1,5.01,0.00,26.1,24.4,00.0,35.0,27.9,14.4,0004.0,0021.43,0008.88,0007.61
2022-11-08 04:43:00,,0823.2,5.00,0.00,26.1,24.3,00.0,35.0,27.8,14.4,0003.8,0021.21,0008.88,0007.62
2022-11-08 04:44:00,,0823.3,5.00,0.00,26.0,24.3,00.0,34.9,27.8,14.5,0003.7,0020.26,0008.93,0007.63
2022-11-08 04:45:00,,0823.2,4.99,0.00,26.0,24.3,00.0,34.9,27.8,14.5,0003.7,0019.94,0008.91,0007.63
2022-11-08 04:46:00,,0823.1,5.00,0.00,26.0,24.3,00.0,34.9,27.8,14.5,0003.4,0019.43,0008.86,0007.62
2022-11-08 04:47:00,,0823.2,5.00,0.00,26.0,24.3,00.0,34.9,27.8,14.5,0003.1,0018.92,0008.80,0007.60
2022-11-08 04:48:00,,0823.2,5.00,0.00,26.0,24.3,00.0,34.9,27.8,14.5,0002.7,0019.25,0008.74,0007.53
2022-11-08 04:49:00,,0823.1,5.00,0.00,26.0,24.3,00.0,34.9,27.8,14.5,0002.4,0018.91,0008.66,0007.46
2022-11-08 04:50:00,,0823.1,4.99,0.00,26.0,24.2,00.0,34.9,27.7,14.6,0002.2,0018.81,0008.60,0007.38
2022-11-08 04:51:00,,0823.1,4.99,0.00,26.0,24.2,00.0,34.9,27.7,14.5,0002.0,0018.64,0008.53,0007.32
2022-11-08 04:52:00,,0823.1,5.00,0.00,26.0,24.2,00.0,34.9,27.8,14.5,0002.2,0018.19,0008.47,0007.27
2022-11-08 04:53:00,,0823.1,5.00,0.00,26.0,24.2,00.0,34.9,27.7,14.5,0002.5,0017.26,0008.45,0007.26
2022-11-08 04:54:00,,0823.1,5.00,0.00,25.9,24.2,00.0,34.9,27.7,14.5,0002.6,0017.56,0008.44,0007.24
2022-11-08 04:55:00,,0823.1,5.00,0.00,25.9,24.2,00.0,34.8,27.7,14.5,0002.7,0017.82,0008.40,0007.23
2022-11-08 04:56:00,,0823.1,5.00,0.00,25.9,24.2,00.0,34.8,27.7,14.6,0002.8,0017.31,0008.35,0007.21
2022-11-08 04:57:00,,0823.1,5.00,0.00,25.9,24.2,00.0,34.8,27.7,14.6,0002.7,0017.74,0008.28,0007.16
2022-11-08 04:58:00,,0823.2,5.00,0.00,25.9,24.2,00.0,34.8,27.7,14.6,0003.2,0017.86,0008.26,0007.12
2022-11-08 04:59:00,,0823.2,5.00,0.00,25.9,24.2,00.0,34.8,27.7,14.6,0004.0,0017.41,0008.24,0007.13
